FW9881 Weather Reports


time (UTC)temp
F
wind
direction
speed
knots
gust
knots
rain 1hr
in
rain 24hr
in
rain mn
in
humidity
%
barometer
mb
20260508034827 39 180 0.9 0.9 0.00 0.00 0.00 74 1012.1
20260508033827 40 180 0.9 0.9 0.00 0.00 0.00 74 1012.0
20260508032925 40 180 1.7 1.7 0.00 0.00 0.00 75 1012.2
20260508030942 41 180 0.0 0.0 0.00 0.00 0.00 73 1011.9
20260508030826 41 180 0.0 0.0 0.00 0.00 0.00 73 1011.9
20260508030727 41 180 0.0 0.0 0.00 0.00 0.00 73 1012.0
20260508025726 42 180 0.0 0.0 0.00 0.00 0.00 72 1011.9
20260508025626 42 180 0.0 0.0 0.00 0.00 0.00 72 1011.9
20260508024626 42 180 0.0 0.0 0.00 0.00 0.00 70 1011.9
20260508023627 43 180 0.0 0.0 0.00 0.00 0.00 67 1011.9
20260508022626 43 180 0.0 0.0 0.00 0.02 0.00 65 1011.9
20260508022525 43 180 0.0 0.0 0.00 0.02 0.00 65 1011.9
20260508021525 43 180 0.0 0.0 0.00 0.03 0.00 66 1011.8
20260508020528 43 180 0.0 0.0 0.00 0.03 0.00 65 1011.8
20260508014624 44 180 0.0 0.0 0.00 0.04 0.00 60 1011.5
20260508013626 44 180 0.0 0.0 0.00 0.04 0.00 58 1011.2
20260508012625 45 175 0.0 0.0 0.00 0.04 0.00 58 1011.1
20260508010626 46 315 0.0 0.9 0.00 0.05 0.00 53 1011.0
20260508005625 46 247 0.0 0.0 0.00 0.06 0.00 52 1011.0
20260508004625 47 266 0.9 1.7 0.00 0.07 0.00 49 1010.7
20260508003628 48 180 0.0 0.0 0.00 0.10 0.00 47 1010.8
20260508003527 48 180 0.0 0.0 0.00 0.10 0.00 47 1010.8
20260508003427 48 180 0.0 0.0 0.00 0.10 0.00 47 1010.8
20260508002525 49 180 0.0 0.0 0.00 0.10 0.00 45 1010.6
20260508001625 49 270 0.0 1.7 0.00 0.10 0.00 44 1010.5
20260508000626 50 22 0.0 0.0 0.00 0.10 0.00 42 1010.4
20260507235725 51 254 0.0 1.7 0.00 0.10 0.00 41 1010.3
20260507234727 51 268 1.7 2.6 0.00 0.10 0.00 40 1010.1
20260507233725 52 259 3.5 5.2 0.00 0.10 0.00 39 1010.1
20260507233625 52 326 1.7 2.6 0.00 0.10 0.00 39 1010.1
20260507232626 52 286 2.6 5.2 0.00 0.10 0.00 38 1010.2
20260507232527 52 301 1.7 4.3 0.00 0.10 0.00 39 1010.2
20260507231626 53 279 1.7 3.5 0.00 0.10 0.00 39 1010.1
20260507230626 53 327 1.7 3.5 0.00 0.10 0.00 39 1010.1
20260507225626 53 299 2.6 5.2 0.00 0.10 0.00 39 1010.1
20260507225529 53 328 2.6 5.2 0.00 0.10 0.00 39 1010.1
20260507224626 53 337 1.7 2.6 0.00 0.10 0.00 40 1010.1
20260507224525 53 337 0.9 1.7 0.00 0.10 0.00 40 1010.1
20260507224428 53 337 0.0 0.9 0.00 0.10 0.00 40 1010.1
20260507221425 53 331 1.7 2.6 0.00 0.10 0.00 38 1009.7
20260507220426 54 320 1.7 3.5 0.00 0.10 0.00 38 1009.7
20260507215525 54 327 0.9 2.6 0.00 0.10 0.00 37 1009.7
20260507215425 54 290 0.9 5.2 0.00 0.10 0.00 37 1009.6
20260507214426 55 271 2.6 6.1 0.00 0.10 0.00 37 1009.4
20260507213429 55 269 0.0 0.9 0.00 0.10 0.00 37 1009.5
20260507212427 55 330 2.6 5.2 0.00 0.10 0.00 37 1009.5
20260507211426 55 287 3.5 6.1 0.00 0.10 0.00 35 1009.4
20260507211326 55 272 4.3 7.8 0.00 0.10 0.00 36 1009.3
20260507210326 56 271 5.2 11.3 0.00 0.10 0.00 34 1009.5
20260507205425 57 261 6.1 11.3 0.00 0.10 0.00 34 1009.4
20260507204425 57 284 4.3 9.6 0.00 0.10 0.00 34 1009.2
20260507203427 57 276 5.2 9.6 0.00 0.10 0.00 34 1009.1
20260507203325 57 266 8.7 13.9 0.00 0.10 0.00 34 1009.1
20260507202326 57 359 3.5 7.0 0.00 0.10 0.00 34 1009.2
20260507195224 58 223 1.7 3.5 0.00 0.12 0.00 34 1009.3
20260507194225 59 329 2.6 5.2 0.00 0.12 0.00 36 1009.4
20260507193324 57 332 3.5 7.0 0.00 0.13 0.00 36 1009.4
20260507193226 57 311 2.6 7.0 0.00 0.13 0.00 37 1009.4
20260507192225 56 269 3.5 5.2 0.00 0.15 0.00 38 1009.6
20260507191324 56 293 4.3 7.8 0.00 0.17 0.00 37 1009.5
20260507191226 56 328 3.5 7.8 0.00 0.18 0.00 37 1009.7
20260507190124 57 341 2.6 5.2 0.00 0.19 0.00 37 1009.7
20260507185126 57 335 0.9 3.5 0.00 0.20 0.00 39 1009.8
20260507184126 56 251 3.5 7.8 0.00 0.20 0.00 39 1009.8
20260507183125 56 270 3.5 6.1 0.00 0.20 0.00 39 1009.9
20260507182126 56 277 5.2 7.8 0.00 0.21 0.00 38 1010.3
20260507181126 56 316 5.2 9.6 0.00 0.22 0.00 38 1010.2
20260507175226 55 278 4.3 7.8 0.00 0.24 0.00 39 1010.3
20260507175142 54 337 2.6 7.8 0.00 0.24 0.00 38 1010.2
20260507174228 55 266 6.1 8.7 0.00 0.25 0.00 37 1010.3
20260507173225 55 351 3.5 7.8 0.00 0.26 0.00 38 1010.3
20260507173125 55 336 1.7 3.5 0.00 0.26 0.00 38 1010.3
20260507172126 55 269 2.6 6.1 0.00 0.27 0.00 37 1010.3
20260507171225 55 270 5.2 12.2 0.00 0.28 0.00 39 1010.5
20260507171124 55 334 3.5 8.7 0.00 0.28 0.00 38 1010.3
20260507170125 54 272 5.2 8.7 0.00 0.28 0.00 38 1010.6
20260507170024 54 252 5.2 7.8 0.00 0.28 0.00 39 1010.8
20260507165026 54 334 5.2 9.6 0.00 0.30 0.00 39 1011.0
20260507164125 54 297 5.2 9.6 0.00 0.30 0.00 41 1011.0
20260507163224 54 272 4.3 9.6 0.00 0.30 0.00 41 1011.1
20260507162227 53 241 5.2 7.8 0.00 0.30 0.00 41 1011.0
20260507161225 53 314 3.5 6.1 0.00 0.30 0.00 40 1011.2
20260507160323 54 252 6.1 9.6 0.00 0.30 0.00 41 1011.3
20260507160224 54 336 4.3 7.8 0.00 0.30 0.00 42 1011.2
20260507155225 54 295 2.6 5.2 0.00 0.30 0.00 42 1011.3
20260507154227 53 357 7.0 12.2 0.00 0.30 0.00 41 1011.1
20260507152341 52 276 0.9 2.6 0.00 0.30 0.00 45 1011.4
20260507151426 53 293 3.5 6.1 0.00 0.30 0.00 44 1011.7
20260507150425 52 317 1.7 3.5 0.00 0.30 0.00 45 1011.7
20260507150326 52 285 6.1 9.6 0.00 0.30 0.00 46 1011.6
20260507150227 52 291 3.5 6.1 0.00 0.30 0.00 46 1011.8
20260507144327 52 335 5.2 8.7 0.00 0.30 0.00 49 1011.7
20260507143341 51 349 7.8 15.6 0.00 0.30 0.00 54 1011.5
20260507143226 51 339 3.5 6.1 0.00 0.30 0.00 54 1011.6
20260507142226 51 266 3.5 7.8 0.00 0.30 0.00 59 1011.7
20260507141225 50 320 7.0 10.4 0.00 0.30 0.00 63 1011.5
20260507141126 50 309 3.5 7.0 0.00 0.30 0.00 64 1011.7
20260507135224 49 249 6.1 10.4 0.00 0.30 0.00 73 1011.6
20260507135126 49 289 6.1 10.4 0.00 0.30 0.00 72 1011.6
20260507134140 50 318 3.5 7.8 0.00 0.30 0.00 73 1011.6
20260507133125 49 311 3.5 6.1 0.00 0.30 0.00 74 1011.5
20260507133041 49 252 4.3 7.8 0.00 0.30 0.00 74 1011.4
20260507131026 49 324 2.6 6.1 0.00 0.30 0.00 76 1011.7
20260507130926 49 296 3.5 7.8 0.00 0.30 0.00 76 1011.6
20260507125924 49 271 2.6 6.1 0.00 0.30 0.00 77 1011.6
20260507123926 48 319 3.5 7.0 0.00 0.30 0.00 78 1011.3
20260507122927 48 240 5.2 9.6 0.00 0.30 0.00 79 1011.3
20260507122024 48 253 3.5 6.1 0.00 0.30 0.00 80 1011.4
20260507121024 47 251 6.1 8.7 0.00 0.30 0.00 80 1011.4
20260507120026 47 344 0.9 2.6 0.00 0.30 0.00 82 1011.4
20260507115124 47 271 5.2 10.4 0.00 0.30 0.00 83 1011.3
20260507114224 46 295 4.3 7.8 0.00 0.30 0.00 84 1011.2
20260507113225 46 302 2.6 4.3 0.00 0.30 0.00 86 1011.4
20260507112225 46 327 3.5 5.2 0.00 0.30 0.00 87 1011.1
20260507111224 45 326 2.6 4.3 0.00 0.30 0.00 89 1011.2
20260507110224 44 318 1.7 3.5 0.00 0.30 0.00 89 1011.2
20260507105241 44 337 1.7 2.6 0.00 0.30 0.00 91 1011.0
20260507104324 43 346 1.7 3.5 0.00 0.30 0.00 90 1010.8
20260507103325 43 336 2.6 4.3 0.00 0.30 0.00 91 1010.5
20260507103226 43 299 2.6 7.0 0.00 0.30 0.00 91 1010.6
20260507102324 43 349 2.6 4.3 0.00 0.30 0.00 90 1010.5
20260507102223 43 312 3.5 6.1 0.00 0.30 0.00 91 1010.6
20260507095227 44 326 2.6 4.3 0.00 0.30 0.00 90 1010.6
20260507095125 44 346 1.7 4.3 0.00 0.30 0.00 90 1010.6
20260507094126 44 265 2.6 5.2 0.00 0.30 0.00 89 1011.0
20260507093125 44 343 2.6 4.3 0.00 0.30 0.00 90 1010.6
20260507093025 44 346 2.6 3.5 0.00 0.30 0.00 90 1010.9
20260507092025 44 315 0.0 0.9 0.00 0.30 0.00 90 1011.1
20260507091026 44 350 0.9 2.6 0.00 0.30 0.00 90 1011.1
20260507090025 44 7 1.7 2.6 0.00 0.30 0.00 90 1011.4
20260507083223 44 315 0.9 1.7 0.00 0.30 0.00 90 1011.0
20260507082226 44 310 1.7 3.5 0.00 0.30 0.00 89 1010.9
20260507081226 44 351 2.6 4.3 0.00 0.30 0.00 90 1011.0
20260507080224 44 311 2.6 3.5 0.00 0.30 0.00 90 1011.0
20260507073227 44 337 0.0 0.0 0.00 0.30 0.00 90 1011.2
20260507071225 44 11 0.0 1.7 0.00 0.30 0.00 90 1010.5
20260507070225 45 347 0.9 1.7 0.00 0.30 0.00 90 1010.5
20260507064225 45 356 0.9 2.6 0.00 0.30 0.00 90 1010.4
20260507062225 45 336 2.6 6.1 0.00 0.30 0.00 91 1010.4
20260507062125 46 341 1.7 2.6 0.00 0.30 0.00 91 1010.3
20260507062026 46 334 1.7 4.3 0.00 0.30 0.00 91 1010.4
20260507061123 46 321 0.9 1.7 0.00 0.30 0.00 91 1010.8
20260507060125 46 304 0.9 2.6 0.00 0.30 0.00 91 1010.8
20260507055126 46 247 0.0 0.0 0.00 0.30 0.00 90 1010.8
20260507055040 46 247 0.0 0.9 0.00 0.30 0.00 91 1010.9
20260507054124 46 157 0.0 0.0 0.00 0.30 0.00 91 1010.8
20260507054025 46 157 0.0 0.0 0.00 0.30 0.00 91 1010.8
20260507053925 46 157 0.0 0.0 0.00 0.30 0.00 90 1010.8
20260507053025 46 157 0.0 0.0 0.00 0.30 0.00 91 1011.0
20260507052025 46 157 0.0 0.0 0.00 0.30 0.00 91 1010.8
20260507050927 46 157 0.9 1.7 0.00 0.30 0.00 91 1010.9
20260507045925 47 135 0.0 0.9 0.00 0.30 0.00 91 1010.9
20260507044925 47 336 1.7 2.6 0.00 0.30 0.00 91 1010.8
20260507044824 47 11 1.7 3.5 0.00 0.30 0.00 91 1010.7
20260507044725 47 22 1.7 3.5 0.00 0.30 0.00 91 1010.6
20260507043725 47 178 0.0 0.9 0.00 0.30 0.00 90 1010.5
20260507043639 47 337 0.0 0.9 0.00 0.30 0.00 90 1010.4
20260507043525 47 337 0.0 1.7 0.00 0.30 0.00 90 1010.4
20260507041624 48 108 0.9 1.7 0.00 0.30 0.00 91 1010.5
20260507041524 48 337 0.0 0.9 0.00 0.30 0.00 91 1010.6
20260507041425 48 354 1.7 1.7 0.00 0.30 0.00 91 1010.5
20260507040424 48 180 0.0 0.0 0.00 0.30 0.00 91 1011.0
20260507035446 48 113 1.7 2.6 0.00 0.30 0.30 90 1010.8